Location: Burgberg
(50.1428°N, 11.0671°E)
Time: 21:28:01
(UTC+00:00)

Cosmos 1703 - Pass Details

Date: 26 January 2020
Orbit: 524 x 541 km, 82.5° (Epoch: 17 February)

Event Time Altitude Azimuth Distance (km) Brightness Sun altitude
Exits shadow 04:09:18 42° 113° (ESE) 774 4.4 -26.9°
Drops below altitude 10° 04:12:20 10° 152° (SSE) 1,781 6.2 -26.4°
Sets 04:14:31 0° 158° (SSE) 2,663 7.1 -26.1°
